Hourly Data Report for July 27, 2021

CAMPBELL RIVER A
BRITISH COLUMBIA
Current Station Operator: NAVCAN

49°57'07.000" N
125°16'23.000" W
108.80 m
1021270
YBL

Download Data

Hourly Data (July 2021)
Hourly Data Report for July 27, 2021
TIME
LST
Temp Definition
°C
Dew Point Definition
°C
Rel Hum Definition
%
Precip. Amount Definition
mm

Wind Dir Definition
10's deg

Wind Spd Definition
km/h
Visibility Definition
km
Stn Press Definition
kPa
Hmdx Definition


Wind Chill Definition


Weather Definition


00:00 16.7 11.6 71 LegendMM 29 16 LegendMM 100.34     LegendNANA
01:00 15.9 11.2 73 LegendMM 30 12 LegendMM 100.36     LegendNANA
02:00 15.6 10.6 72 LegendMM 29 15 LegendMM 100.37     LegendNANA
03:00 15.3 10.6 73 LegendMM 30 15 LegendMM 100.40     LegendNANA
04:00 14.5 10.2 75 LegendMM 30 15 LegendMM 100.41     LegendNANA
05:00 14.0 10.2 78 LegendMM 30 12 LegendMM 100.41     LegendNANA
06:00 15.0 10.3 73 LegendMM 30 9 LegendMM 100.45     LegendNANA
07:00 16.9 10.4 65 LegendMM 31 21 LegendMM 100.48     LegendNANA
08:00 19.1 10.6 58 LegendMM 31 17 LegendMM 100.51     LegendNANA
09:00 20.9 10.9 52 LegendMM 28 11 LegendMM 100.52     LegendNANA
10:00 22.4 11.0 48 LegendMM 32 7 LegendMM 100.52     LegendNANA
11:00 23.6 11.5 46 LegendMM 33 7 LegendMM 100.52 26   LegendNANA
12:00 25.3 12.1 43 LegendMM 10 14 LegendMM 100.51 28   LegendNANA
13:00 25.6 11.9 42 LegendMM 7 11 LegendMM 100.48 28   LegendNANA
14:00 26.9 12.1 39 LegendMM 12 7 LegendMM 100.48 29   LegendNANA
15:00 28.4 9.9 31 LegendMM 7 13 LegendMM 100.44 30   LegendNANA
16:00 28.2 10.0 32 LegendMM 7 11 LegendMM 100.41 29   LegendNANA
17:00 28.5 10.5 32 LegendMM 8 10 LegendMM 100.40 30   LegendNANA
18:00 28.0 10.3 33 LegendMM 6 8 LegendMM 100.38 29   LegendNANA
19:00 26.8 11.1 37 LegendMM 32 6 LegendMM 100.40 29   LegendNANA
20:00 22.6 8.6 40 LegendMM 31 9 LegendMM 100.44     LegendNANA
21:00 19.5 9.4 52 LegendMM 28 9 LegendMM 100.50     LegendNANA
22:00 20.0 5.5 38 LegendMM 29 10 LegendMM 100.55     LegendNANA
23:00 18.7 5.7 42 LegendMM 30 12 LegendMM 100.57     LegendNANA

Notes on Data Quality.

Legend

  • E = Estimated
  • M = Missing
  • NA = Not Available*
  • [empty] = Indicates an unobserved value
Date modified: